This demonstration page uses our WeatherBlox Daily Observations layout. Learn more.

Left ArrowRight Arrow

41.55636, -103.73856

Hourly Observations for April 13, 2021

Temp ( °F °C ) Dew Point ( °F °C ) Humidity (%) Winds ( mph kmh ) Pressure ( in mb ) Visibility ( mi km ) Precip ( " mm )
12:58 am 00:58 Clear 25 -3.7 13 -10.7 59 59 N 15 24 30.34 1028 10 16.0934 0 0
1:58 am 01:58 Clear 22 -5.6 12 -10.9 67 67 NNW 15 24 30.34 1028 10 16.0934 0 0
2:58 am 02:58 Mostly Cloudy 26 -3.6 14 -9.8 63 63 NNW 16 26 30.32 1027 10 16.0934 0 0
3:58 am 03:58 Mostly Cloudy 25 -3.8 15 -9.5 65 65 NNW 13 20 30.33 1027 10 16.0934 0 0
4:58 am 04:58 Mostly Cloudy 24 -4.5 16 -8.9 72 72 NNW 14 22 30.33 1027 10 16.0934 0 0
5:58 am 05:58 Mostly Cloudy 23 -4.8 15 -9.5 70 70 NNW 15 24 30.34 1028 10 16.0934 0 0
6:58 am 06:58 Mostly Cloudy 23 -5 15 -9.5 71 71 N 17 28 30.35 1028 10 16.0934 0 0
7:58 am 07:58 Partly Cloudy 25 -4 15 -9.5 66 66 NNW 17 28 30.38 1029 10 16.0934 0 0
8:58 am 08:58 Sunny 28 -2.5 14 -9.9 57 57 N 20 31 30.38 1029 10 16.0934 0 0
9:58 am 09:58 Sunny 30 -1.1 14 -9.8 52 52 N 18 30 30.37 1028 10 16.0934 0 0
10:58 am 10:58 Sunny 34 1 14 -9.9 44 44 N 16 26 30.34 1028 10 16.0934 0 0
11:58 am 11:58 Cloudy 34 1.2 14 -10.1 43 43 N 13 20 30.33 1027 10 16.0934 0 0
12:58 pm 12:58 Cloudy 35 1.8 14 -9.9 42 42 N 9 15 30.31 1026 10 16.0934 0 0
1:58 pm 13:58 Mostly Cloudy 36 2.2 13 -10.3 39 39 NNW 12 19 30.33 1027 10 16.0934 0 0
2:58 pm 14:58 Cloudy 37 2.6 13 -10.3 38 38 N 9 15 30.27 1025 10 16.0934 0 0
3:58 pm 15:58 Cloudy 37 2.7 13 -10.7 37 37 N 5 7 30.27 1025 10 16.0934 0 0
4:58 pm 16:58 Mostly Cloudy 37 2.7 14 -10.1 39 39 N 8 13 30.28 1025 10 16.0934 0 0
5:58 pm 17:58 Mostly Sunny 37 3 14 -10 38 38 NNE 7 11 30.28 1025 10 16.0934 0 0
6:58 pm 18:58 Sunny 35 1.9 13 -10.7 39 39 N 8 13 30.29 1026 10 16.0934 0 0
7:58 pm 19:58 Mostly Cloudy 34 0.9 13 -10.6 42 42 N 6 9 30.32 1027 10 16.0934 0 0
8:58 pm 20:58 Mostly Cloudy 33 0.8 13 -10.6 43 43 N 6 9 30.31 1026 10 16.0934 0 0
9:58 pm 21:58 Mostly Cloudy 33 0.8 12 -11.3 40 40 NNE 12 19 30.31 1026 10 16.0934 0 0
10:58 pm 22:58 Mostly Clear 29 -1.8 13 -10.6 51 51 NNE 12 19 30.32 1027 10 16.0934 0 0
11:58 pm 23:58 Mostly Cloudy 28 -2.3 13 -10.3 55 55 NE 13 20 30.33 1027 10 16.0934 0 0

Powered by AerisWeather